Location: Dattensoll
(49.9928°N, 9.8954°E)
Time: 07:08:02
(UTC+00:00)

Cosmos 2181 Rocket - Pass Details

Date: 19 May 2025
Orbit: 952 x 1013 km, 82.9° (Epoch: 21 June)

Event Time Altitude Azimuth Distance (km) Brightness Sun altitude
Exits shadow 20:58:45 15° 175° (S) 2,411 5.5 -13.7°
Maximum altitude 21:04:06 69° 94° (E) 1,062 4.1 -14.1°
Drops below altitude 10° 21:10:26 10° 14° (NNE) 2,784 7.1 -14.6°
Sets 21:13:00 0° 12° (NNE) 3,745 7.8 -14.9°
